Regional Weather Roundup
Issued by NWS Northern Indiana

Home | Current Version | Previous Version | Text Only | Print | Product List | Glossary Off
Versions: 1 2 3 4 5 6 7 8 9 10 11 12 13 14 15 16 17 18 19 20 21 22 23 24 25 26 27 28 29 30 31 32 33 34 35 36 37 38 39 40 41 42 43 44 45 46 47 48 49 50

422
ASUS43 KIWX 190610
RWRIWX

KIWX WEATHER ROUNDUP
NATIONAL WEATHER SERVICE NORTHERN INDIANA
100 AM EST THU JAN 19 2017

NOTE: "FAIR" INDICATES FEW OR NO CLOUDS BELOW 12,000 FEET WITH NO
SIGNIFICANT WEATHER AND/OR OBSTRUCTIONS TO VISIBILITY.

* THESE STATIONS ARE NOT UNDER NWS QUALITY CONTROL. THEY ALSO MAY NOT
  REPORT WEATHER SUCH AS PRECIPITATION OR FOG.

INZ001>027-190700-
NORTHERN INDIANA

CITY           SKY/WX    TMP DP  RH WIND       PRES   REMARKS
GARY*          CLOUDY    37  34  87 S3        30.07S FOG
VALPARAISO     CLOUDY    36  34  92 S9        30.07F
6HR MIN TEMP:  36; 6HR MAX TEMP:  38;

LAPORTE*       CLOUDY    35  32  90 SW10      30.08S WCI  27
6HR MIN TEMP:  35; 6HR MAX TEMP:  36;

KNOX*          CLOUDY    34  21  60 SW9       30.08S WCI  26
SOUTH BEND     CLOUDY    34  32  92 SW8       30.07F WCI  27
6HR MIN TEMP:  34; 6HR MAX TEMP:  35;

GOSHEN         CLOUDY    35  30  82 SW8       30.07F WCI  29
6HR MIN TEMP:  34; 6HR MAX TEMP:  35;

ROCHESTER*     CLOUDY    36  34  93 SW5       30.09F
WARSAW*        CLOUDY    34  28  80 SW3       30.08F
FORT WAYNE     CLOUDY    35  32  88 SW8       30.08F WCI  29
6HR MIN TEMP:  35; 6HR MAX TEMP:  36; 6HR PCP: TRACE;

MARION*        CLOUDY    36  34  93 W7        30.11S FOG

$$
INZ028>050-190700-
CENTRAL INDIANA

CITY           SKY/WX    TMP DP  RH WIND       PRES   REMARKS
LAFAYETTE      CLOUDY    36  34  92 S5        30.10F
6HR MIN TEMP:  35; 6HR MAX TEMP:  37;

KOKOMO*        CLOUDY    35  33  92 SW10      30.11S WCI  27
6HR MIN TEMP:  35; 6HR MAX TEMP:  36;

MUNCIE*        CLOUDY    37  34  89 W6        30.09F
6HR MIN TEMP:  37; 6HR MAX TEMP:  38;

INDIANAPOLIS   CLOUDY    37  33  85 S7        30.10F
6HR MIN TEMP:  36; 6HR MAX TEMP:  37;


$$
MIZ043>046-050>051-056>058-064>065-071>073-077>080-190700-
SOUTHWEST LOWER MICHIGAN

CITY           SKY/WX    TMP DP  RH WIND       PRES   REMARKS
BATTLE CREEK   CLOUDY    34  32  92 SW14      30.05S WCI  25
6HR MIN TEMP:  33; 6HR MAX TEMP:  34;

BENTON HARBOR  CLOUDY    36  32  85 SW9       30.06F
6HR MIN TEMP:  35; 6HR MAX TEMP:  37;

COLDWATER*     CLOUDY    33  33 100 SW9       30.06S WCI  26
6HR MIN TEMP:  32; 6HR MAX TEMP:  34;

HILLSDALE*     CLOUDY    32  32 100 SW7       30.04S FOG     WCI  26
HOLLAND        CLOUDY    36  33  89 SW13      30.04S
6HR MIN TEMP:  35; 6HR MAX TEMP:  36;

GRAND RAPIDS   CLOUDY    34  30  85 SW13      30.03S WCI  25
6HR MIN TEMP:  33; 6HR MAX TEMP:  34;

KALAMAZOO      CLOUDY    35  30  82 MISG      30.06S
6HR MIN TEMP:  34; 6HR MAX TEMP:  35;

STURGIS*       CLOUDY    33  32  96 SW10      30.06S FOG     WCI  25
6HR MIN TEMP:  32; 6HR MAX TEMP:  33;

THREE RIVERS*  CLOUDY    34  32  92 SW6       30.07S WCI  29
6HR MIN TEMP:  33; 6HR MAX TEMP:  34;


$$
OHZ001>008-015>018-024>025-190700-
NORTHWEST OHIO

CITY           SKY/WX    TMP DP  RH WIND       PRES   REMARKS
DEFIANCE       CLOUDY    34  32  92 SW9       30.09F WCI  27
6HR MIN TEMP:  34; 6HR MAX TEMP:  34;

FINDLAY        CLOUDY    37  33  85 SW10      30.08F FOG
6HR MIN TEMP:  37; 6HR MAX TEMP:  38;

TOLEDO EXPRESS CLOUDY    34  34 100 W13       30.07F WCI  25
6HR MIN TEMP:  34; 6HR MAX TEMP:  36;

TOLEDO METCALF CLOUDY    36  34  92 SW13      30.09F
6HR MIN TEMP:  36; 6HR MAX TEMP:  38;

LIMA           CLOUDY    36  35  96 W10       30.09F
6HR MIN TEMP:  35; 6HR MAX TEMP:  36; 6HR PCP: TRACE;


$$
AND FOR LAKE MICHIGAN COASTAL AND OPEN LAKE BUOY OBSERVATIONS

STATION/POSITION TEMP    WIND        PRES    VSBY  WAVE
                 AIR SEA DIR/SP/G                  HT/PER
                 (F)     (DEG/KT/KT) (MB)    (MI)  (FT/S)
CALUMET HARBOR           190/  5/  7 1017.2F
BURNS HARBOR      38     200/ 13/ 16 1018.6

$$
&&




USA.gov is the U.S. government's official web portal to all federal, state and local government web resources and services.